This demonstration page uses our WeatherBlox Daily Observations layout. Learn more.

Left ArrowRight Arrow

53.62937, 11.41316

Hourly Observations for November 21, 2022

Temp ( °F °C ) Dew Point ( °F °C ) Humidity (%) Winds ( mph kmh ) Pressure ( in mb ) Visibility ( mi km ) Precip ( " mm )
12:20 am 00:20 Cloudy 27 -3 25 -4 93 93 VRB 2 4 29.68 1005 6 10 0.00 0.00
12:50 am 00:50 Mostly Cloudy 27 -3 25 -4 93 93 VRB 1 2 29.68 1005 4 7 0.00 0.00
1:20 am 01:20 Clear 27 -3 25 -4 93 93 VRB 2 4 29.68 1005 4 6 0.00 0.00
1:50 am 01:50 Partly Cloudy 25 -4 25 -4 100 100 VRB 2 4 29.65 1004 4 6 0.00 0.00
2:20 am 02:20 Mostly Cloudy 25 -4 25 -4 100 100 W 2 4 29.65 1004 6 10 0.00 0.00
2:50 am 02:50 Mostly Cloudy 25 -4 25 -4 100 100 W 3 6 29.65 1004 4 6 0.00 0.00
3:20 am 03:20 Cloudy 27 -3 25 -4 93 93 VRB 2 4 29.65 1004 5 8 0.00 0.00
3:50 am 03:50 Cloudy 27 -3 25 -4 93 93 VRB 2 4 29.65 1004 6 10 0.00 0.00
4:20 am 04:20 Mostly Cloudy 27 -3 27 -3 100 100 SW 3 6 29.65 1004 6 10 0.00 0.00
4:50 am 04:50 Mostly Cloudy 27 -3 25 -4 93 93 VRB 2 4 29.65 1004 6 10 0.00 0.00
5:20 am 05:20 Cloudy 27 -3 25 -4 93 93 VRB 2 4 29.65 1004 6 10 0.00 0.00
5:50 am 05:50 Cloudy 27 -3 27 -3 100 100 VRB 2 4 29.65 1004 6 10 0.00 0.00
6:20 am 06:20 Mostly Cloudy 28 -2 27 -3 93 93 VRB 3 6 29.65 1004 6 10 0.00 0.00
6:50 am 06:50 Partly Cloudy 28 -2 27 -3 93 93 VRB 2 4 29.65 1004 6 10 0.00 0.00
7:20 am 07:20 Mostly Clear 28 -2 27 -3 93 93 VRB 2 4 29.65 1004 6 10 0.00 0.00
7:50 am 07:50 Mostly Clear 28 -2 25 -4 86 86 VRB 3 6 29.65 1004 6 10 0.00 0.00
8:20 am 08:20 Mostly Sunny 27 -3 25 -4 93 93 VRB 2 4 29.65 1004 6 10 0.00 0.00
8:50 am 08:50 Mostly Sunny 28 -2 27 -3 93 93 VRB 3 6 29.65 1004 6 10 0.00 0.00
9:20 am 09:20 Mostly Sunny 28 -2 27 -3 93 93 VRB 3 6 29.65 1004 6 10 0.00 0.00
9:50 am 09:50 Mostly Sunny 30 -1 27 -3 86 86 VRB 5 7 29.65 1004 6 10 0.00 0.00
10:20 am 10:20 Mostly Sunny 30 -1 27 -3 86 86 VRB 3 6 29.65 1004 6 10 0.00 0.00
10:50 am 10:50 Mostly Sunny 30 -1 27 -3 86 86 SSW 3 6 29.65 1004 6 10 0.00 0.00
11:20 am 11:20 Mostly Sunny 30 -1 28 -2 93 93 VRB 3 6 29.65 1004 6 10 0.00 0.00
11:50 am 11:50 Mostly Sunny 30 -1 28 -2 93 93 SSW 5 7 29.65 1004 6 10 0.00 0.00
12:20 pm 12:20 Mostly Sunny 32 0 28 -2 86 86 SSW 5 7 29.65 1004 6 10 0.00 0.00
12:50 pm 12:50 Mostly Sunny 32 0 30 -1 93 93 SSW 3 6 29.65 1004 6 10 0.00 0.00
1:20 pm 13:20 Mostly Sunny 32 0 28 -2 86 86 S 5 7 29.62 1003 6 10 0.00 0.00
1:50 pm 13:50 Mostly Sunny 32 0 28 -2 86 86 SSW 5 7 29.62 1003 6 10 0.00 0.00
2:20 pm 14:20 Mostly Sunny 34 1 28 -2 80 80 SSW 3 6 29.62 1003 6 10 0.00 0.00
2:50 pm 14:50 Mostly Sunny 34 1 28 -2 80 80 S 5 7 29.62 1003 6 10 0.00 0.00
3:20 pm 15:20 Mostly Sunny 34 1 28 -2 80 80 S 5 7 29.59 1002 6 10 0.00 0.00
3:50 pm 15:50 Mostly Sunny 34 1 28 -2 80 80 S 7 11 29.59 1002 6 10 0.00 0.00
4:20 pm 16:20 Mostly Clear 32 0 28 -2 86 86 S 3 6 29.62 1003 6 10 0.00 0.00
4:50 pm 16:50 Mostly Clear 30 -1 28 -2 93 93 SSE 5 7 29.59 1002 6 10 0.00 0.00
5:20 pm 17:20 Mostly Clear 30 -1 28 -2 93 93 S 5 7 29.59 1002 6 10 0.00 0.00
5:50 pm 17:50 Mostly Clear 30 -1 28 -2 93 93 S 5 7 29.59 1002 6 10 0.00 0.00
6:20 pm 18:20 Mostly Clear 32 0 28 -2 86 86 SSE 7 11 29.59 1002 6 10 0.00 0.00
6:50 pm 18:50 Mostly Clear 30 -1 28 -2 93 93 S 5 7 29.59 1002 6 10 0.00 0.00
7:20 pm 19:20 Mostly Clear 30 -1 27 -3 86 86 S 6 9 29.59 1002 6 10 0.00 0.00
7:50 pm 19:50 Mostly Clear 30 -1 27 -3 86 86 S 5 7 29.59 1002 6 10 0.00 0.00
8:20 pm 20:20 Mostly Clear 30 -1 27 -3 86 86 SE 5 7 29.56 1001 6 10 0.00 0.00
8:50 pm 20:50 Mostly Clear 28 -2 27 -3 93 93 ESE 6 9 29.56 1001 6 10 0.00 0.00
9:20 pm 21:20 Mostly Clear 28 -2 27 -3 93 93 SE 6 9 29.53 1000 6 10 0.00 0.00
9:50 pm 21:50 Mostly Clear 28 -2 27 -3 93 93 SSE 6 9 29.56 1001 6 10 0.00 0.00
10:20 pm 22:20 Mostly Clear 28 -2 27 -3 93 93 SE 7 11 29.56 1001 6 10 0.00 0.00
10:50 pm 22:50 Partly Cloudy 28 -2 27 -3 93 93 SE 7 11 29.56 1001 6 10 0.00 0.00
11:20 pm 23:20 Partly Cloudy 28 -2 27 -3 93 93 SE 8 13 29.56 1001 6 10 0.00 0.00
11:50 pm 23:50 Mostly Clear 28 -2 25 -4 86 86 SE 8 13 29.56 1001 6 10 0.00 0.00

Powered by AerisWeather